GEFSNGP_850_meantemp_108.txt.gz
Temperature
21 22 22 22 23 23 22 20 20 20 21 21 21 21 22 23 23 22 22 22 22 21 21 20 20 19 19 18 18 17 16 16 15 15 14 14 14 13 13 13 12 12 12 11
22 23 23 23 24 24 23 23 22 22 22 21 22 23 22 23 22 22 22 22 22 22 21 21 20 19 19 18 18 17 16 16 15 15 14 14 14 13 13 13 12 12 12 11
20 21 22 22 22 23 23 23 22 21 21 21 21 21 22 23 23 23 23 23 22 22 21 21 20 20 19 18 18 17 17 16 16 15 15 14 14 13 13 13 12 12 12 12
19 20 21 21 22 23 23 22 22 21 21 21 21 23 24 25 24 24 23 23 22 22 22 21 20 20 19 18 18 17 17 16 16 15 15 14 14 14 13 13 13 12 12 12
18 19 20 22 22 22 22 21 21 21 21 22 23 22 22 24 25 25 24 24 23 22 22 21 20 20 19 18 18 17 17 17 16 15 15 15 14 14 13 13 13 12 12 12
17 19 20 21 21 21 21 20 20 20 20 21 21 19 20 23 24 24 24 24 23 22 22 21 20 20 19 19 18 18 17 17 16 15 15 15 14 14 14 13 13 12 12 12
17 18 19 19 20 21 20 19 19 19 20 21 20 21 23 24 24 24 24 23 23 22 21 21 20 20 19 19 18 18 17 16 16 15 15 15 14 14 14 13 13 13 12 12
16 17 18 18 19 18 18 18 18 20 21 21 22 22 23 23 23 23 23 23 22 22 21 21 20 19 19 19 18 17 17 16 16 15 15 14 14 14 13 13 13 13 12 12
16 16 17 17 18 19 19 19 19 20 21 21 21 21 22 22 22 22 22 22 22 21 21 20 20 19 19 19 18 17 17 16 16 15 15 14 14 14 13 13 13 13 12 12
15 16 16 17 19 19 20 20 20 21 21 21 21 21 21 21 21 21 21 21 21 20 20 20 19 19 18 18 17 17 16 16 15 15 14 14 14 13 13 13 13 13 12 12
15 16 16 17 18 19 20 20 20 20 20 20 20 20 20 20 20 20 20 20 20 19 19 19 18 18 17 17 16 16 16 15 15 14 14 14 13 13 13 13 13 12 12 12
16 16 16 17 19 19 19 19 19 19 19 19 19 19 19 19 19 19 19 19 18 18 18 18 17 17 17 16 16 16 15 15 14 14 14 13 13 13 13 13 12 12 12 12
19 18 18 18 19 19 18 18 18 19 18 19 19 19 19 19 19 18 18 18 18 17 17 17 16 16 16 15 15 15 14 14 14 13 13 13 13 12 12 13 12 12 12 12
19 18 18 18 18 18 18 18 18 18 18 18 18 18 18 18 18 17 17 17 17 16 16 16 16 15 15 15 14 14 14 13 13 13 13 12 12 12 12 12 12 12 12 12
18 18 17 17 17 17 17 17 17 17 17 17 17 17 17 17 16 16 16 16 16 15 15 15 15 14 14 14 13 13 13 13 13 12 12 12 12 12 12 12 12 12 12 12
17 17 17 17 16 16 17 16 16 16 16 16 16 16 16 15 15 15 15 15 15 14 14 14 14 13 13 13 13 13 12 12 12 12 12 12 11 11 11 11 11 11 11 11
16 15 16 15 15 16 16 16 16 15 15 15 15 15 15 15 14 14 14 14 14 13 13 13 13 13 13 12 12 12 12 12 12 11 11 11 11 11 11 11 11 11 11 11
16 16 16 16 15 15 15 15 15 15 15 15 14 14 14 14 13 13 13 13 13 13 13 12 12 12 12 12 12 11 11 11 11 11 11 10 10 10 10 10 10 10 10 10
16 16 15 15 15 15 15 15 14 14 14 14 14 13 13 13 13 13 12 12 12 12 12 12 12 12 11 11 11 11 11 11 10 10 10 10 10 10 10 10 10 10 10 10
15 15 15 15 14 14 14 14 14 13 13 13 13 13 12 12 12 12 12 12 12 11 11 11 11 11 11 11 10 10 10 10 10 10 9 9 9 9 9 9 9 9 9 9
14 14 14 14 14 14 13 13 13 13 13 13 12 12 12 12 12 12 12 11 11 11 11 11 11 11 10 10 10 10 10 9 9 9 9 9 9 9 9 9 9 9 9 9
14 14 14 13 13 13 13 13 13 12 12 12 12 12 12 12 12 11 11 11 11 11 11 10 10 10 10 10 10 9 9 9 9 8 8 8 8 8 8 8 8 8 8 8
13 13 13 13 13 13 12 12 12 12 12 12 12 12 12 12 11 11 11 11 11 10 10 10 10 9 9 9 9 9 9 8 8 8 8 8 7 7 7 7 7 7 8 8
13 13 13 13 12 12 12 12 12 12 12 12 12 12 11 11 11 11 11 10 10 10 10 10 9 9 9 9 8 8 8 8 7 7 7 7 7 7 7 7 7 7 7 7
13 13 12 12 12 12 12 12 12 12 12 12 11 11 11 11 10 10 10 10 10 10 9 9 9 9 8 8 8 8 7 7 7 6 6 6 6 6 6 6 6 6 6 7
12 12 12 12 12 12 12 11 11 11 11 11 11 11 10 10 10 10 10 9 9 9 9 9 8 8 8 7 7 7 7 6 6 6 6 6 5 5 5 6 6 6 6 6
12 12 12 12 11 11 11 11 11 11 10 10 10 10 10 10 9 9 9 9 9 8 8 8 8 7 7 7 6 6 6 6 5 5 5 5 5 5 5 5 5 5 6 6

GEFSNGP_850_meantemp_114.txt.gz
Temperature
19 20 20 21 20 19 18 18 18 19 18 20 19 19 20 21 21 21 21 21 22 21 21 21 20 20 19 19 18 18 17 16 16 16 15 15 14 14 14 14 13 13 13 13
20 20 20 21 21 20 20 19 19 19 19 19 19 20 20 20 21 21 22 22 22 22 22 21 21 20 20 19 18 18 17 17 16 16 15 15 15 14 14 14 13 13 13 13
19 20 20 20 20 20 20 19 19 19 20 19 18 18 19 21 21 22 23 23 23 23 22 22 22 21 20 19 18 18 17 17 16 16 16 15 15 15 14 14 14 13 13 13
17 19 20 20 20 20 20 19 18 18 18 18 18 20 21 22 23 23 24 24 24 23 23 22 22 21 20 19 19 18 18 17 17 16 16 16 15 15 15 14 14 14 13 13
16 18 19 20 20 19 19 19 18 17 18 18 19 19 20 21 23 24 24 24 24 24 23 22 21 21 20 19 19 18 18 17 17 16 16 16 15 15 15 14 14 14 13 13
15 18 18 19 20 19 19 19 18 17 17 17 18 18 19 22 23 23 24 24 24 23 23 22 21 20 20 19 19 18 18 18 17 17 16 16 15 15 15 14 14 13 13 13
15 17 17 18 18 19 19 19 18 17 17 17 17 18 20 22 23 23 23 23 23 23 22 22 21 20 20 19 19 19 18 17 17 16 16 16 15 15 14 14 14 13 13 13
14 16 17 18 18 18 18 18 18 18 18 18 19 19 20 21 22 23 23 23 22 22 22 21 20 20 19 19 19 18 17 17 16 16 16 15 15 15 14 14 13 13 13 13
14 16 16 16 17 17 17 17 18 18 19 19 19 19 20 21 21 22 22 22 22 21 21 20 19 19 19 18 18 17 17 16 16 16 15 15 15 14 14 13 13 13 13 12
14 15 15 17 17 17 18 18 18 18 18 19 18 19 19 19 20 20 20 20 20 20 20 19 18 18 18 17 17 17 16 16 16 15 15 14 14 14 13 13 13 12 12 12
14 14 15 17 17 17 18 18 18 18 18 18 18 19 19 19 19 19 19 19 19 19 19 18 18 17 17 17 16 16 16 15 15 15 14 14 14 13 13 13 12 12 12 12
15 15 15 16 17 17 17 17 17 17 17 17 18 18 18 18 18 18 18 18 18 18 17 17 17 16 16 16 16 15 15 15 14 14 14 13 13 13 13 12 12 12 12 11
17 17 16 16 16 17 17 17 16 17 17 17 17 17 17 17 17 17 17 17 16 16 16 16 16 15 15 15 15 14 14 14 13 13 13 13 12 12 12 12 12 12 12 11
16 16 15 15 15 16 16 16 16 16 16 16 16 16 16 16 16 16 16 16 15 15 15 15 15 15 14 14 14 13 13 13 13 12 12 12 12 12 11 11 11 11 11 11
16 16 15 15 15 15 15 16 16 15 15 15 16 15 15 15 15 15 15 15 15 14 14 14 14 13 13 13 13 13 12 12 12 12 11 11 11 11 11 11 10 10 11 11
15 15 15 15 14 14 15 15 15 14 14 14 14 14 14 14 14 14 14 14 14 13 13 13 13 13 12 12 12 12 12 11 11 11 11 11 10 10 10 10 10 10 10 10
14 14 14 14 14 14 14 14 14 14 14 14 14 13 13 13 13 13 13 13 13 13 12 12 12 12 12 12 11 11 11 11 11 10 10 10 10 10 9 9 9 9 9 9
15 14 14 14 14 13 13 13 13 13 13 13 13 13 13 13 13 12 12 12 12 12 12 12 11 11 11 11 11 11 11 10 10 10 10 10 9 9 9 9 9 9 9 9
14 14 14 14 14 14 13 13 13 13 13 13 13 12 12 12 12 12 12 12 12 11 11 11 11 11 11 10 10 10 10 10 10 9 9 9 9 9 8 8 8 8 8 8
13 13 13 13 13 13 13 13 12 12 12 12 12 12 12 12 12 11 11 11 11 11 11 11 10 10 10 10 10 10 9 9 9 9 9 9 8 8 8 8 8 8 7 7
13 13 13 13 12 12 12 12 12 12 12 12 12 12 12 11 11 11 11 11 11 11 10 10 10 10 10 9 9 9 9 9 8 8 8 8 8 7 7 7 7 7 7 7
13 13 12 12 12 12 12 12 12 12 12 12 12 11 11 11 11 11 11 11 10 10 10 10 10 9 9 9 9 9 8 8 8 8 7 7 7 7 7 7 6 6 6 6
12 12 12 12 12 12 11 11 11 11 11 11 11 11 11 11 11 11 10 10 10 10 10 9 9 9 9 9 8 8 8 8 7 7 7 7 6 6 6 6 6 6 6 6
12 12 12 12 11 11 11 11 11 11 11 11 11 11 11 11 11 10 10 10 10 9 9 9 9 9 8 8 8 8 7 7 7 7 6 6 6 5 5 5 5 5 5 5
11 11 11 11 11 11 11 11 11 11 11 11 10 10 10 10 10 10 10 9 9 9 9 9 8 8 8 7 7 7 7 6 6 6 6 5 5 5 5 5 5 5 5 5
11 11 11 11 11 11 11 10 10 10 10 10 10 10 10 10 9 9 9 9 9 8 8 8 8 7 7 7 7 6 6 6 6 5 5 5 5 5 4 4 4 4 4 4
10 10 10 10 10 10 10 10 10 10 10 9 9 9 9 9 9 9 8 8 8 8 7 7 7 6 6 6 6 6 5 5 5 5 4 4 4 4 4 4 4 4 4 4

GEFSNGP_850_meantemp_120.txt.gz
Temperature
27 28 27 27 27 27 27 27 28 28 28 29 28 28 27 26 25 24 23 23 22 21 21 20 19 19 19 18 18 18 17 17 17 16 16 15 15 15 14 14 14 14 13 13
25 26 27 27 27 27 27 27 28 28 28 29 28 27 26 26 25 25 24 23 22 22 21 20 20 19 19 19 18 18 18 17 17 16 16 16 15 15 15 14 14 14 14 13
24 26 26 25 27 27 27 28 28 27 28 28 27 27 26 25 25 25 24 24 23 22 21 21 20 20 19 19 19 18 18 17 17 17 16 16 15 15 15 15 14 14 14 14
24 24 23 26 28 28 27 28 28 28 28 27 27 25 25 24 24 24 24 24 23 22 22 21 21 20 20 19 19 19 18 17 17 17 16 16 16 15 15 15 15 14 14 14
23 23 25 26 26 27 26 26 27 27 27 26 25 25 24 23 23 23 23 23 23 22 22 21 21 20 20 19 19 19 18 18 17 17 16 16 16 16 15 15 15 15 14 14
23 23 23 25 26 25 25 25 25 25 25 25 25 26 26 22 21 22 22 22 22 22 21 21 20 20 20 19 19 19 18 18 17 17 17 16 16 16 15 15 15 15 14 14
22 23 24 25 24 24 24 23 23 23 23 23 24 23 21 21 20 20 21 21 21 21 21 21 20 20 19 19 19 19 18 17 17 17 17 16 16 16 15 15 15 15 14 14
22 22 23 23 24 24 22 21 22 22 22 22 21 20 20 20 19 19 20 20 20 20 20 20 20 20 19 18 18 18 17 17 17 17 16 16 16 16 15 15 14 14 14 14
22 22 21 21 21 20 20 20 21 21 20 20 20 20 19 19 18 19 19 19 19 20 20 19 19 19 18 18 17 17 17 17 16 16 16 15 15 15 15 14 14 14 14 14
21 22 21 20 20 20 19 19 19 19 19 19 19 19 18 18 17 17 18 18 18 19 18 18 18 18 17 17 17 17 16 16 16 16 15 15 15 14 14 14 14 14 14 13
20 21 21 20 19 19 18 19 19 19 19 18 18 18 18 17 17 17 16 17 17 17 17 17 17 17 16 16 16 16 16 16 15 15 14 14 14 14 13 13 13 13 13 13
20 20 20 19 18 18 18 18 18 18 17 17 17 17 16 16 16 16 16 16 16 16 16 16 16 16 16 16 16 15 15 15 15 14 14 13 13 13 13 13 13 13 12 12
18 18 18 17 17 17 17 17 16 16 16 16 16 16 15 15 15 15 15 15 15 15 15 15 15 15 15 14 14 14 14 14 14 14 13 13 13 13 13 12 12 12 12 12
16 16 17 17 17 16 16 16 16 15 15 15 15 15 15 14 14 14 14 14 14 14 14 14 14 14 13 13 13 13 13 13 13 13 13 13 12 12 12 12 12 12 12 11
15 15 16 15 15 15 15 15 15 15 14 14 14 14 14 14 14 13 13 13 13 13 13 13 13 13 13 13 13 13 12 12 12 12 12 12 12 12 12 12 11 11 11 11
14 15 15 15 15 14 14 14 14 14 13 13 13 13 13 13 13 13 12 12 13 13 12 12 12 12 12 12 12 12 12 12 11 11 12 12 12 12 12 11 11 11 11 11
14 14 14 14 14 14 14 14 13 13 13 13 12 12 12 12 12 12 12 12 12 12 11 11 11 11 11 11 11 11 11 11 11 11 11 11 11 11 11 11 11 10 10 10
13 13 13 13 13 13 13 13 13 12 12 12 12 12 12 12 12 11 11 11 11 11 11 11 11 11 11 11 11 11 11 11 11 11 11 11 10 10 10 10 10 10 10 10
13 13 13 13 13 12 12 12 12 12 12 12 12 12 11 11 11 11 11 11 11 11 11 11 11 10 10 10 10 10 10 10 10 10 10 10 10 10 10 10 10 10 9 9
12 12 13 12 12 12 12 12 12 12 11 11 11 11 11 11 11 11 11 11 11 11 10 10 10 10 10 10 10 10 10 10 10 10 10 10 10 10 9 9 9 9 9 8
12 12 12 12 12 12 12 12 12 11 11 11 11 11 11 11 11 11 11 11 10 10 10 10 10 10 10 10 9 9 10 9 9 9 9 9 9 9 9 8 8 8 8 7
11 11 11 11 11 11 11 11 11 11 11 11 11 11 11 11 11 11 11 10 10 10 10 10 10 9 9 9 9 9 9 9 9 9 8 8 8 8 8 8 7 7 7 7
11 11 11 11 11 11 11 11 11 11 11 11 11 11 11 10 11 11 11 10 10 10 9 9 9 9 9 8 8 8 8 8 8 8 8 7 7 7 7 7 6 6 6 6
11 11 11 11 11 11 11 11 11 11 11 10 10 10 10 10 10 11 10 10 9 9 9 9 8 8 8 8 8 8 8 7 7 7 7 6 6 6 6 6 6 5 5 5
10 10 10 10 10 11 10 10 10 10 10 10 10 10 10 10 10 10 9 9 9 8 8 8 8 8 7 7 7 7 7 7 6 6 6 6 5 5 5 5 5 5 4 4
10 10 10 10 10 10 10 10 11 10 10 10 10 10 10 9 9 9 9 8 8 8 8 8 7 7 7 7 7 6 6 6 6 5 5 5 5 4 4 4 4 4 4 4
10 10 10 10 10 9 10 10 10 10 10 9 9 9 9 9 8 8 8 8 8 7 7 7 7 7 6 6 6 5 5 5 5 5 4 4 4 4 4 4 4 4 4 4

GEFSNGP_850_meantemp_126.txt.gz
Temperature
26 26 25 24 24 25 26 26 27 27 27 27 26 27 28 28 28 27 26 25 24 23 22 21 21 20 20 19 19 18 18 17 17 17 17 16 16 16 16 16 16 16 15 15
25 26 26 25 25 25 26 27 27 28 28 28 28 28 28 28 28 27 26 25 24 23 22 22 21 21 20 19 19 19 18 18 17 17 17 16 16 16 16 16 16 16 16 16
24 26 26 25 25 26 26 27 28 27 28 28 27 28 29 28 28 27 26 26 25 24 23 22 21 21 20 20 19 19 18 18 17 17 17 17 16 16 16 16 16 16 16 16
23 24 23 26 28 27 27 28 29 29 29 28 28 28 28 28 27 27 27 26 25 24 23 22 22 21 21 20 19 19 18 18 18 17 17 17 16 16 16 16 16 16 16 16
22 23 24 26 27 26 25 26 28 28 28 28 28 27 27 26 26 26 26 26 25 24 24 23 22 21 21 20 20 19 19 18 18 18 17 17 17 16 16 16 16 16 16 16
22 22 22 24 24 24 25 25 27 27 27 27 27 26 25 25 25 25 25 25 24 24 24 23 22 22 21 20 20 19 19 18 18 18 17 17 17 17 16 16 16 16 15 15
21 22 23 22 23 24 23 22 24 25 26 26 25 24 24 24 24 23 23 23 24 24 23 23 22 22 21 20 20 20 19 19 18 18 17 17 17 17 16 16 16 15 15 15
21 21 21 21 22 21 20 21 23 23 24 24 24 24 23 23 22 22 22 22 22 22 22 22 21 21 20 20 20 19 19 18 18 18 17 17 16 16 16 16 15 15 15 15
20 20 20 20 19 19 20 21 22 23 23 23 23 23 22 22 21 21 21 21 21 21 21 20 20 20 19 19 19 19 19 18 17 17 17 16 16 16 16 15 15 15 15 15
19 19 19 19 20 20 20 21 22 22 22 22 22 21 21 20 20 20 20 20 20 20 19 19 19 19 19 19 18 18 18 17 17 16 16 16 16 15 15 15 15 15 14 15
19 19 18 19 19 20 20 21 21 21 21 21 21 20 20 19 19 18 18 18 18 18 18 18 18 18 18 18 17 17 17 17 16 16 16 15 15 15 15 15 15 15 15 14
18 18 18 18 19 20 20 20 20 20 20 20 19 19 19 18 18 17 17 17 17 17 17 17 17 17 17 16 16 16 16 16 15 15 15 15 14 14 14 14 14 14 14 14
18 18 18 18 19 19 19 19 19 19 19 18 18 18 17 17 16 16 16 16 16 16 16 16 15 15 15 15 15 15 15 15 15 15 14 14 14 14 14 14 14 14 14 14
18 18 17 18 18 18 18 18 18 18 17 17 17 16 16 16 16 15 15 15 15 15 15 14 14 14 14 14 14 14 14 14 14 14 14 14 14 14 14 14 14 14 14 14
17 17 17 17 17 17 17 17 17 17 16 16 15 15 15 15 14 14 14 14 14 14 14 13 13 13 13 13 13 13 13 14 14 13 13 13 13 14 14 13 13 13 13 13
16 17 16 16 16 16 16 16 16 15 15 15 14 14 14 14 13 13 13 13 13 13 13 13 12 12 12 12 13 13 13 13 13 13 13 13 13 13 13 13 13 13 13 12
16 16 16 15 15 15 15 15 14 14 14 14 14 13 13 13 13 13 12 12 12 12 12 12 12 12 12 12 12 12 12 12 12 12 13 13 12 12 12 12 12 12 12 12
15 15 15 15 14 14 14 14 14 14 13 13 13 13 13 12 12 12 12 12 12 12 12 11 12 12 12 12 12 12 12 12 12 12 12 12 12 12 12 12 12 12 12 12
14 14 14 14 14 13 13 13 13 13 13 13 12 12 12 12 12 12 12 11 12 11 11 11 11 11 11 11 11 11 11 12 12 12 12 12 12 12 11 11 11 11 11 11
13 13 13 13 13 13 13 12 12 12 12 12 12 12 12 12 11 11 11 11 11 11 11 11 11 11 11 11 11 11 11 11 11 11 11 11 11 11 11 11 11 10 10 10
13 13 13 13 13 12 12 13 13 12 12 12 12 12 12 12 12 11 11 11 11 11 11 11 11 11 11 11 11 11 11 11 11 11 11 10 10 10 10 10 9 9 9 9
12 12 12 12 13 12 12 12 12 12 12 12 12 12 12 12 12 12 11 11 11 11 11 11 10 10 10 10 10 10 10 10 10 10 10 9 9 9 9 9 8 8 8 8
12 12 12 12 12 12 12 12 12 12 12 12 12 12 12 12 12 12 11 11 11 11 10 10 10 10 10 9 9 9 9 9 9 9 9 8 8 8 8 8 8 7 7 7
12 12 12 12 12 12 12 12 12 12 12 12 12 12 11 12 11 11 11 11 10 10 10 10 10 9 9 9 9 9 9 8 8 8 8 8 8 7 7 7 7 6 6 6
11 11 11 11 12 12 12 12 12 12 12 12 12 11 11 11 11 11 10 10 10 10 10 9 9 9 9 8 8 8 8 8 7 7 7 7 7 7 6 6 6 6 5 5
11 11 11 11 11 11 12 12 12 12 12 11 11 11 11 10 10 10 10 10 10 9 9 9 9 8 8 8 8 8 7 7 7 7 6 6 6 6 5 5 5 5 4 4
11 11 11 11 11 11 11 11 11 11 11 10 10 10 10 10 10 9 9 9 9 9 9 8 8 8 7 7 7 7 6 6 6 6 6 5 5 5 5 4 4 4 4 4

GEFSNGP_850_meantemp_132.txt.gz
Temperature
19 20 20 21 21 21 20 19 19 20 20 20 20 20 21 21 22 22 21 21 20 20 20 20 19 19 19 19 18 18 18 18 18 17 17 17 16 16 16 16 16 16 16 15
18 20 20 21 21 21 21 21 20 20 20 20 20 21 21 21 21 21 21 21 21 20 20 20 20 19 19 19 19 18 18 18 18 17 17 17 17 16 16 16 16 16 16 16
17 18 19 19 20 21 20 20 20 19 19 19 19 20 20 21 22 22 21 21 21 21 21 21 20 20 20 20 19 19 18 18 18 18 17 17 17 16 16 16 16 16 16 16
16 17 18 19 20 21 20 20 19 19 19 19 19 20 21 22 22 22 22 22 22 22 22 22 21 21 20 20 19 19 19 18 18 18 17 17 17 17 17 16 16 16 16 16
15 16 18 19 19 19 18 18 18 18 18 18 19 20 20 21 22 22 23 23 23 23 22 22 22 21 20 20 19 19 19 19 18 18 18 17 17 17 17 17 16 16 16 16
15 17 17 18 18 19 19 17 17 17 17 18 18 18 18 20 21 22 22 23 23 23 22 22 22 21 20 20 20 19 19 19 19 18 18 18 18 17 17 17 17 16 16 16
15 16 17 17 17 18 18 17 16 16 16 17 17 17 19 19 20 21 22 22 22 22 22 22 22 21 20 20 20 20 19 19 19 18 18 18 17 17 17 17 16 16 16 15
14 15 16 16 16 16 16 15 15 16 17 17 17 18 18 19 19 20 21 22 21 21 21 21 21 21 20 20 20 20 19 19 18 18 18 17 17 17 16 16 16 15 15 15
14 14 15 15 15 16 16 15 16 16 17 17 17 17 18 18 18 19 19 20 20 20 20 20 20 20 20 20 19 19 19 18 18 18 17 17 17 16 16 16 15 15 15 15
14 14 14 15 15 16 16 16 16 16 16 17 17 17 17 17 17 18 18 19 19 19 19 18 19 18 19 19 19 18 18 18 17 17 17 16 16 16 16 15 15 15 15 14
13 14 14 15 15 15 16 16 16 16 16 16 16 16 16 16 16 17 17 18 18 18 18 18 18 18 18 18 18 18 17 17 17 16 16 16 16 16 15 15 15 15 14 14
14 14 14 14 15 15 15 15 15 15 15 16 16 15 15 15 16 16 16 17 16 16 16 16 17 17 17 17 17 17 16 16 16 16 15 15 15 15 14 14 14 14 14 14
15 15 15 15 15 15 15 15 15 15 15 15 15 15 15 15 15 15 15 15 15 15 15 16 16 16 15 16 16 16 16 15 15 15 15 15 14 14 14 13 13 13 13 13
15 15 14 14 14 15 15 15 14 14 14 14 14 14 14 14 14 14 14 14 15 15 14 15 15 14 14 15 15 15 15 14 14 14 14 14 13 13 13 13 13 13 12 12
15 15 14 14 14 14 14 14 14 14 14 14 14 14 13 14 13 13 13 14 14 14 14 14 14 13 14 14 14 14 14 13 13 13 13 13 13 13 12 12 12 12 12 12
14 14 14 14 14 14 14 14 14 13 13 13 13 13 13 13 13 12 13 13 13 13 12 13 13 12 13 13 13 13 13 13 13 12 12 12 12 12 12 12 11 11 11 11
14 13 13 13 13 13 13 14 13 13 13 13 12 12 12 12 12 12 12 12 12 12 12 12 12 12 12 12 12 12 12 12 12 12 12 12 11 11 11 11 11 11 10 10
14 13 13 13 13 13 13 13 13 13 12 12 12 12 12 12 12 12 12 12 12 12 11 12 12 12 12 12 12 12 11 11 11 11 11 11 11 11 10 10 10 10 10 10
13 13 13 13 13 13 12 12 12 12 12 12 12 12 12 12 11 11 11 12 11 11 11 11 11 11 11 11 11 11 11 11 11 11 10 10 10 10 10 10 10 10 9 9
12 12 12 12 12 12 12 12 12 12 12 12 12 12 11 11 11 11 11 11 11 11 11 11 11 11 11 11 10 10 10 10 10 10 10 10 9 9 9 9 9 9 9 8
12 12 12 12 12 12 12 12 12 12 12 12 11 11 11 11 11 11 11 11 10 10 10 10 10 10 10 10 10 10 10 9 9 9 9 9 9 8 8 8 8 8 8 8
11 11 12 12 12 12 12 12 12 12 11 11 11 11 11 11 11 11 10 10 10 10 10 10 10 10 9 9 9 9 9 9 9 9 8 8 8 8 8 7 7 7 7 7
11 12 12 12 12 12 11 11 11 11 11 11 11 11 11 11 11 10 10 10 10 10 10 9 9 9 9 9 9 8 8 8 8 8 8 8 7 7 7 7 7 7 6 6
11 11 11 11 11 11 11 11 11 11 11 11 11 11 11 10 10 10 10 10 10 9 9 9 9 9 8 8 8 8 8 8 7 7 7 7 7 7 6 6 6 6 6 6
11 11 11 11 11 11 11 11 11 11 11 11 10 10 10 10 10 9 9 9 9 9 9 8 8 8 8 8 7 7 7 7 7 7 6 6 6 6 6 6 5 5 5 5
11 11 11 11 11 11 11 11 10 10 10 10 10 10 9 9 9 9 9 9 8 8 8 8 8 7 7 7 7 7 6 6 6 6 6 6 5 5 5 5 5 5 4 4
10 10 10 10 10 10 10 10 10 10 10 9 9 9 9 9 8 8 8 8 8 8 7 7 7 7 6 6 6 6 6 6 5 5 5 5 5 5 4 4 4 4 4 4

GEFSNGP_850_meantemp_138.txt.gz
Temperature
17 18 18 18 19 18 18 17 17 18 18 19 18 18 18 19 19 19 19 19 19 19 19 19 19 19 19 18 18 18 17 17 17 17 17 17 16 16 16 15 15 15 15 15
17 18 18 18 18 18 18 18 18 18 18 18 18 18 18 18 18 18 19 19 19 19 20 20 20 19 19 19 18 18 18 18 17 17 17 17 16 16 16 16 15 15 15 15
15 17 18 17 18 18 18 18 18 18 18 17 17 17 17 18 18 18 19 20 20 20 20 20 20 20 20 19 19 18 18 18 18 17 17 17 17 16 16 16 15 15 15 15
14 16 16 17 17 17 17 17 17 17 17 16 16 17 18 18 18 18 19 20 20 20 21 21 20 20 20 19 19 18 18 18 18 17 17 17 17 16 16 16 15 15 15 15
13 15 16 17 17 16 16 16 16 16 16 16 16 17 18 18 18 18 19 20 21 21 21 21 21 20 20 19 19 19 18 18 18 18 17 17 17 17 16 16 16 16 15 15
13 15 15 16 16 16 16 16 16 15 15 15 15 16 16 18 18 19 20 20 21 21 21 21 21 20 19 19 19 19 19 19 18 18 18 17 17 17 17 16 16 16 15 15
13 14 15 15 15 16 16 16 15 15 14 14 14 15 16 17 17 18 19 20 20 20 20 20 20 20 20 20 20 20 19 19 18 18 18 17 17 17 17 16 16 15 15 15
13 14 15 15 15 15 15 15 15 14 15 14 15 15 15 16 17 18 18 19 20 20 20 20 20 20 20 20 20 19 19 18 18 18 18 17 17 16 16 16 15 15 15 15
13 13 14 14 14 15 15 14 14 14 15 15 14 14 15 15 16 17 17 18 19 19 19 19 19 19 19 20 19 19 18 18 18 17 17 17 17 16 16 16 15 15 15 15
12 13 13 14 14 14 14 14 14 14 14 14 14 14 14 15 15 16 17 17 17 18 18 18 18 18 19 19 18 18 18 17 17 17 16 16 16 16 15 15 15 15 15 15
12 13 13 14 14 14 14 14 14 14 14 14 14 14 14 14 14 15 15 16 16 16 17 17 17 17 17 17 17 17 17 17 17 16 16 15 15 15 15 15 15 15 14 14
12 12 12 13 13 13 13 13 13 13 13 13 13 13 13 13 13 14 14 14 15 15 15 15 16 16 16 16 16 16 16 16 16 15 15 15 15 14 14 14 14 14 14 13
13 13 13 13 13 13 13 13 13 12 12 12 12 13 13 12 13 13 13 14 14 14 14 14 14 14 15 15 15 15 15 15 15 15 14 14 14 14 14 13 13 13 13 13
13 13 12 12 12 12 13 12 12 12 12 12 12 12 12 12 12 12 12 12 13 13 13 13 13 13 14 14 14 14 14 14 14 14 14 14 13 13 13 13 13 12 12 12
13 13 12 12 12 12 12 12 12 12 12 11 12 12 11 12 11 11 11 12 12 12 12 12 13 12 13 13 13 13 13 13 13 13 13 13 13 13 12 12 12 12 11 11
12 12 12 12 12 12 12 12 11 11 11 11 11 11 11 11 11 11 11 12 12 12 12 12 12 12 12 12 13 12 12 12 12 12 12 12 12 12 12 11 11 11 11 11
12 12 12 12 12 12 12 11 11 11 11 11 11 11 11 11 11 11 11 11 11 11 11 11 11 11 11 12 12 12 11 11 11 11 11 11 11 11 11 10 10 10 10 10
12 12 12 12 12 12 11 11 11 11 11 11 11 11 11 11 10 10 11 11 11 11 11 10 10 11 11 11 11 11 11 11 11 10 10 10 10 10 10 10 9 9 9 9
12 12 12 12 12 11 11 11 11 11 11 11 11 11 11 10 10 10 10 10 10 10 10 10 10 10 10 10 10 10 10 10 10 10 10 9 9 9 9 9 9 8 8 8
11 11 11 11 11 11 11 11 11 11 11 11 11 11 10 10 10 10 10 10 10 10 10 10 10 10 10 10 10 10 10 9 9 9 9 9 9 8 8 8 8 8 8 8
11 11 11 11 11 11 11 11 11 11 11 11 11 10 10 10 10 10 10 9 9 9 9 9 9 9 9 9 9 9 9 9 8 8 8 8 8 8 8 7 7 7 7 7
10 10 10 10 10 11 11 11 11 11 11 10 10 10 10 10 10 10 9 9 9 9 9 9 9 8 8 8 8 8 8 8 8 8 8 8 7 7 7 7 7 6 6 6
10 10 10 10 10 10 10 10 10 10 10 10 10 10 10 10 10 9 9 9 9 9 9 8 8 8 8 8 8 8 7 7 7 7 7 7 7 7 6 6 6 6 6 5
10 10 10 10 10 10 10 10 10 10 10 10 10 10 10 9 9 9 9 8 8 8 8 8 8 7 7 7 7 7 7 7 7 6 6 6 6 6 6 5 5 5 5 5
10 10 10 10 10 10 10 10 10 10 10 9 9 9 9 9 9 8 8 8 8 8 8 7 7 7 7 7 6 6 6 6 6 6 6 6 5 5 5 5 5 4 4 4
10 10 10 10 10 10 10 10 9 9 9 9 9 9 8 8 8 8 8 8 7 7 7 7 7 6 6 6 6 6 5 5 5 5 5 5 4 4 4 4 4 4 4 3
9 9 9 9 9 9 9 9 9 9 9 8 8 8 8 8 7 7 7 7 7 6 6 6 6 6 5 5 5 5 5 5 4 4 4 4 4 4 4 3 3 3 3 3

GEFSNGP_850_meantemp_144.txt.gz
Temperature
26 26 26 26 26 26 26 26 26 26 27 27 26 25 25 24 24 23 23 22 21 20 19 18 18 18 17 17 17 16 16 16 16 17 17 16 16 16 16 16 16 15 15 15
25 25 25 25 25 25 25 25 26 26 26 26 25 24 24 23 23 23 23 22 21 20 19 19 18 18 18 17 17 17 16 17 17 17 16 16 16 16 16 16 15 15 15 15
24 25 24 24 25 25 25 25 25 25 25 24 24 23 22 22 22 22 22 21 21 20 20 19 18 18 18 18 17 17 17 17 16 16 16 16 16 16 16 16 16 16 15 15
24 23 22 24 24 24 24 24 24 24 24 23 22 21 21 21 21 21 20 20 20 20 19 19 18 18 18 18 17 17 17 17 16 16 16 16 16 16 16 16 16 16 16 15
23 22 23 23 23 22 22 22 23 22 22 22 21 21 22 20 19 19 19 19 19 19 20 19 19 18 18 18 18 17 17 17 17 17 17 16 16 16 16 16 16 16 16 16
21 21 22 22 22 21 22 21 21 21 21 21 21 22 22 19 18 18 18 18 18 19 19 19 19 18 18 18 18 18 18 17 17 17 17 17 17 17 16 16 16 16 15 15
21 21 21 21 21 21 20 20 19 19 19 20 20 20 18 17 17 17 17 17 18 18 19 19 18 18 18 18 18 18 18 17 17 17 17 17 17 16 16 16 16 15 15 15
20 20 20 20 20 20 19 18 18 18 18 18 18 17 17 16 16 16 16 17 17 18 18 18 18 18 18 18 18 18 17 17 17 17 17 17 16 16 16 16 16 15 15 15
20 19 19 18 18 17 16 17 16 17 16 17 17 16 16 15 15 15 15 16 16 17 17 17 17 17 17 17 17 17 17 17 16 16 16 16 16 16 15 15 15 15 15 15
18 18 18 17 16 16 16 16 16 15 15 15 15 15 15 14 14 14 14 14 15 15 16 16 16 17 17 17 17 17 16 16 16 16 16 16 15 15 15 15 15 15 15 15
18 18 17 16 15 15 15 15 14 14 14 14 14 14 13 13 13 13 13 13 14 14 15 15 15 16 16 16 16 16 16 16 16 15 15 15 15 15 15 15 15 15 15 15
17 17 17 15 14 14 14 14 13 13 13 13 13 12 12 12 12 12 12 12 13 13 13 13 14 14 15 15 15 15 15 15 15 15 14 14 14 14 14 14 14 14 14 14
15 15 14 14 13 13 13 13 12 12 12 12 11 11 11 11 11 11 12 12 12 12 12 13 13 13 13 14 14 14 14 14 14 14 14 14 14 14 13 13 13 13 13 13
14 14 14 13 13 13 12 12 12 12 11 11 11 11 11 11 11 11 11 11 11 12 12 12 12 12 13 13 13 13 13 13 13 13 13 13 13 13 13 13 12 12 12 12
13 13 13 13 13 12 12 12 12 11 11 10 10 10 10 10 10 10 10 11 11 11 11 11 11 11 12 12 12 12 12 12 12 12 12 12 12 12 12 12 12 11 11 11
13 13 13 13 12 12 12 12 11 11 10 10 10 10 10 10 10 10 10 10 10 10 10 11 11 11 11 12 12 12 12 12 12 12 12 12 12 12 11 11 11 11 11 10
13 13 12 12 12 12 12 11 11 11 10 10 10 10 10 10 10 9 9 9 9 10 10 10 10 10 11 11 11 11 11 11 11 11 11 11 11 11 11 11 11 10 10 10
12 12 12 12 12 11 11 11 11 10 10 10 10 10 10 9 9 9 9 9 9 9 9 9 9 10 10 10 10 10 10 10 10 10 10 10 10 10 10 10 10 10 9 9
11 11 11 11 11 11 11 11 11 10 10 10 10 10 9 9 9 9 9 9 9 9 9 9 9 9 9 9 10 10 10 10 10 10 10 10 10 10 10 10 9 9 9 9
11 11 11 11 11 10 10 10 10 10 10 10 10 10 9 9 9 9 9 9 9 8 8 9 9 9 9 9 9 9 9 9 9 9 9 9 9 9 9 9 9 8 8 8
10 10 10 10 10 10 10 10 10 10 10 10 10 9 9 9 9 9 9 9 8 8 8 9 8 8 8 9 9 9 9 9 9 9 9 9 8 8 8 8 8 7 7 7
10 10 10 10 10 9 9 10 10 10 10 10 10 9 9 9 9 9 9 8 8 8 8 8 8 8 8 8 8 8 8 8 8 8 8 8 7 7 7 7 7 7 6 6
9 10 10 9 9 9 9 9 9 10 9 9 9 9 9 9 9 9 9 8 8 8 8 8 8 8 8 8 8 8 7 7 7 7 7 7 7 6 6 6 6 6 6 5
9 9 9 9 9 9 9 9 9 9 9 9 9 9 9 9 9 8 8 8 8 7 7 7 7 7 7 7 7 7 7 6 6 6 6 6 6 6 5 5 5 5 5 5
9 9 9 9 9 9 9 9 9 9 9 9 9 9 9 8 8 8 7 7 7 7 7 7 7 6 6 6 6 6 6 5 5 5 5 5 5 5 5 4 4 4 4 4
9 9 9 9 9 9 9 9 9 9 9 9 8 8 8 8 7 7 7 7 7 6 6 6 6 6 6 6 5 5 5 5 5 5 5 4 4 4 4 4 4 4 3 3
9 9 9 9 9 9 9 9 9 9 8 8 8 8 7 7 7 7 7 7 6 6 6 6 6 6 5 5 5 4 4 4 4 4 4 4 4 3 3 3 3 3 3 3

GEFSNGP_850_meantemp_150.txt.gz
Temperature
27 27 27 27 28 28 28 28 27 27 26 26 25 25 25 26 26 26 25 25 24 23 22 21 20 20 19 19 18 18 17 17 17 17 17 17 17 17 17 16 16 16 16 16
26 27 27 27 27 28 28 28 28 27 26 26 26 26 25 26 26 25 25 24 23 22 22 21 21 20 19 19 19 18 18 18 17 17 17 17 17 17 16 16 16 16 16 16
25 26 26 25 27 27 27 28 27 25 25 25 25 25 25 25 25 24 23 23 23 22 21 21 20 20 20 19 19 18 18 18 17 17 17 17 17 17 16 16 16 16 16 16
25 25 23 25 27 27 26 26 26 26 25 25 24 24 24 24 23 23 22 22 22 22 21 21 20 20 20 19 19 18 18 18 18 17 17 17 17 17 17 17 16 16 16 16
24 23 24 25 26 26 25 24 25 24 24 24 23 23 22 22 21 21 21 21 21 21 21 20 20 20 19 19 19 18 18 18 18 17 17 17 17 17 17 16 16 16 16 16
23 22 22 22 25 25 25 23 23 23 23 22 22 22 21 20 20 20 20 20 20 20 20 20 20 20 19 19 19 19 18 18 18 18 17 17 17 17 17 16 16 16 16 16
22 22 22 22 24 25 22 21 21 21 21 21 20 20 19 19 19 19 19 19 19 19 19 19 19 19 19 19 19 19 19 18 18 18 17 17 17 17 17 16 16 16 16 16
22 21 20 21 21 21 20 20 20 20 20 19 19 18 18 17 17 17 17 18 18 18 18 19 19 19 19 19 19 19 18 18 18 18 17 17 17 17 16 16 16 16 16 16
21 20 19 19 18 18 19 19 19 19 18 18 18 17 16 16 16 16 16 16 17 17 17 18 18 18 18 18 18 18 18 18 18 17 17 17 17 16 16 16 15 15 15 15
20 19 19 18 18 18 18 18 18 18 17 17 16 16 15 15 15 15 15 15 15 16 16 16 17 17 17 17 18 18 18 17 17 17 17 16 16 16 16 15 15 15 15 15
19 19 19 18 17 17 17 17 17 16 16 15 15 15 14 14 14 13 14 14 14 14 14 15 15 16 16 16 17 17 17 17 16 16 16 16 16 15 15 15 15 15 15 15
18 18 18 16 16 16 16 15 15 15 15 14 14 13 13 13 13 13 13 13 13 13 13 14 14 15 15 15 16 16 16 16 16 15 15 15 15 15 14 14 14 14 15 15
18 17 16 16 15 15 15 14 14 14 13 13 13 12 12 12 12 12 12 12 12 12 12 13 13 13 14 14 15 15 15 15 15 15 15 14 14 14 14 14 13 13 13 14
17 16 16 15 15 14 14 14 13 13 12 12 12 11 11 11 11 11 11 11 11 12 12 12 12 13 13 13 14 14 14 14 14 14 14 14 14 13 13 13 13 12 12 13
16 16 15 14 14 14 13 13 13 12 12 11 11 11 11 11 11 11 10 10 11 11 11 11 11 12 12 13 13 13 13 14 14 14 13 13 13 13 13 13 12 12 12 12
15 15 15 14 14 13 13 13 12 12 12 11 11 11 11 11 10 10 10 10 10 10 10 10 10 11 12 12 12 12 13 13 13 13 13 13 13 12 12 12 12 12 11 11
14 14 14 14 13 13 13 13 12 12 11 11 11 11 11 10 10 10 10 10 10 9 10 10 10 10 11 11 12 12 12 12 12 12 12 12 12 12 12 12 11 11 11 10
14 14 14 13 13 13 12 12 12 11 11 11 11 11 10 10 10 10 10 10 10 9 9 9 10 10 10 11 11 11 11 11 11 11 11 11 11 11 11 11 11 11 10 10
13 13 13 13 13 12 12 12 11 11 11 11 11 11 10 10 10 10 10 10 9 9 9 9 9 10 10 10 11 11 11 11 11 11 11 11 11 11 10 10 10 10 10 10
13 13 13 12 12 12 12 11 11 11 11 11 11 11 10 10 10 10 10 9 9 9 9 9 9 9 10 10 10 10 10 10 10 10 10 10 10 10 10 10 10 9 9 9
12 12 12 12 11 11 11 11 11 11 11 11 10 10 10 10 10 10 10 9 9 9 9 9 9 9 10 10 10 10 10 10 10 10 10 10 10 9 9 9 9 9 8 8
11 11 11 11 11 11 11 11 11 11 11 10 10 10 10 10 10 10 9 9 9 9 9 9 9 9 9 9 9 9 9 9 9 9 9 9 9 9 8 8 8 8 7 7
10 11 11 11 11 11 11 10 10 10 10 10 10 10 10 10 10 10 9 9 9 9 9 9 9 9 9 9 9 9 9 8 8 8 8 8 8 8 8 7 7 7 7 7
10 10 10 10 10 10 10 10 10 10 10 10 10 10 10 10 10 9 9 9 9 9 8 8 8 8 8 8 8 8 8 8 8 8 7 7 7 7 7 6 6 6 6 6
10 10 10 10 10 10 10 10 10 10 10 10 10 10 10 9 9 9 9 8 8 8 8 8 8 8 8 7 7 7 7 7 7 7 7 6 6 6 6 6 5 5 5 5
10 10 10 10 10 10 10 11 10 10 10 10 10 9 9 9 9 9 8 8 8 8 8 8 8 8 7 7 7 7 7 6 6 6 6 6 6 5 5 5 5 4 4 4
10 10 10 10 10 10 10 10 10 10 10 9 9 9 9 8 8 8 8 8 8 8 7 7 7 7 7 7 6 6 6 6 6 6 5 5 5 5 4 4 4 4 4 4

GEFSNGP_850_meantemp_156.txt.gz
Temperature
21 23 23 23 23 23 22 20 20 19 19 19 18 18 19 19 20 20 20 19 20 20 20 19 19 19 19 19 19 18 18 18 17 17 17 17 17 17 17 17 17 17 17 17
21 23 23 22 23 23 22 21 20 20 19 19 18 18 18 19 19 19 19 19 19 19 19 19 19 19 19 19 18 18 18 18 18 17 17 17 17 17 17 17 17 16 16 16
19 21 22 20 21 21 21 20 20 19 18 18 17 17 17 18 19 19 19 19 19 19 19 19 19 19 19 19 18 18 18 18 18 18 17 17 17 17 17 17 17 16 17 16
17 20 20 19 20 21 20 19 19 18 17 17 17 17 18 18 18 18 18 18 18 19 19 19 19 19 19 19 18 18 18 18 18 18 18 17 17 17 17 17 17 16 16 16
16 18 19 20 20 20 19 17 18 17 17 17 17 17 17 18 18 18 18 18 18 18 18 18 18 18 18 18 18 18 18 18 18 18 17 17 17 17 17 17 17 16 16 16
16 18 18 18 19 20 19 17 17 17 16 16 17 16 15 16 17 17 17 17 17 18 18 18 18 18 18 18 18 18 18 18 18 17 17 17 17 17 17 17 16 16 16 16
16 17 17 17 18 19 18 16 16 16 16 16 15 15 15 16 16 16 16 17 17 17 17 17 18 18 18 18 18 18 18 18 18 17 17 17 17 17 17 17 16 16 16 16
15 16 16 16 17 16 15 15 16 16 16 15 15 15 15 15 15 16 16 16 16 16 16 17 17 17 17 17 17 17 17 18 17 17 17 17 17 17 17 16 16 16 16 16
14 14 14 15 15 15 16 15 15 15 15 15 15 14 14 14 14 14 15 15 15 16 16 16 16 16 16 17 17 17 17 17 17 17 17 17 17 16 16 16 16 16 15 15
13 13 14 14 15 15 15 15 15 15 15 15 14 14 13 13 13 13 14 14 14 15 15 15 15 15 16 16 16 17 17 17 16 17 17 16 16 16 16 16 16 15 15 15
13 13 13 13 14 14 14 14 14 14 14 14 14 13 13 13 13 13 13 13 13 14 14 14 14 15 15 15 16 16 16 16 16 16 16 16 16 15 15 15 15 15 15 15
13 13 12 12 13 13 13 13 13 13 13 13 13 13 12 12 12 12 12 12 12 12 13 13 13 14 14 14 15 15 15 15 15 15 15 15 15 15 14 15 15 15 14 14
14 14 13 13 13 13 13 13 13 13 13 12 12 12 12 11 11 11 12 12 12 12 12 12 13 13 13 14 14 15 15 15 15 14 14 14 14 14 14 13 13 13 13 13
14 13 12 12 12 12 13 12 12 12 12 12 11 11 11 11 11 11 11 11 11 11 11 12 12 12 12 13 13 13 14 14 14 14 14 14 13 13 13 13 13 12 12 12
13 13 13 12 12 12 12 12 11 11 11 11 11 11 11 11 10 10 10 11 11 11 11 11 11 11 12 12 12 13 13 13 13 13 13 13 13 12 12 12 12 12 11 11
13 13 12 12 12 11 11 11 11 11 11 11 10 11 11 10 10 10 10 10 10 10 10 10 10 11 11 11 12 12 12 12 12 12 12 12 12 12 11 11 11 11 11 11
12 11 11 11 11 11 11 11 11 11 10 10 10 10 10 10 10 10 10 10 10 10 10 10 10 10 11 11 11 11 11 11 11 11 11 11 11 11 11 10 10 10 10 10
13 12 12 12 11 11 11 11 11 11 10 10 10 10 10 10 10 9 10 10 10 10 10 10 10 10 10 10 10 10 10 10 10 10 10 10 10 10 10 10 9 9 9 9
12 12 12 12 11 11 11 11 11 10 10 10 10 10 10 10 10 9 10 10 10 9 9 9 10 10 10 10 10 10 10 10 10 10 9 9 9 9 9 9 9 9 8 8
12 12 12 11 11 11 11 11 10 10 10 10 10 10 10 9 9 9 9 9 9 9 9 9 9 9 9 9 9 9 9 9 9 9 9 9 8 8 8 8 8 8 8 8
11 11 11 11 11 11 11 10 10 10 10 10 10 10 9 9 9 9 9 9 9 9 9 9 9 9 9 9 9 9 9 9 9 8 8 8 8 8 8 7 7 7 7 7
11 11 11 11 10 10 10 10 10 10 10 10 10 9 9 9 9 9 9 9 8 9 9 9 9 9 9 9 9 8 8 8 8 8 8 7 7 7 7 7 7 7 7 6
10 11 10 10 10 10 10 10 10 10 10 10 9 9 9 9 9 9 8 8 8 8 9 8 8 8 8 8 8 8 8 7 7 7 7 7 7 7 6 6 6 6 6 6
10 10 10 10 10 10 10 10 10 10 10 9 9 9 9 9 8 8 8 8 8 8 8 8 8 8 8 8 7 7 7 7 7 7 7 6 6 6 6 6 6 6 5 5
10 10 10 10 10 10 10 10 9 9 9 9 9 9 9 9 8 8 8 8 8 8 8 7 7 7 7 7 7 7 7 6 6 6 6 6 6 5 5 5 5 5 5 5
10 10 10 10 10 10 10 9 9 9 9 9 8 8 8 8 8 8 8 7 7 7 7 7 7 7 7 6 6 6 6 6 6 6 5 5 5 5 5 5 4 4 4 4
9 9 10 10 9 9 9 9 9 9 9 9 8 8 8 8 8 7 7 7 7 7 7 6 6 6 6 6 6 6 5 5 5 5 5 5 5 4 4 4 4 4 4 3

GEFSNGP_850_meantemp_162.txt.gz
Temperature
18 20 20 20 20 19 19 18 18 18 18 18 17 16 17 17 17 18 18 18 18 18 18 18 18 18 18 18 18 18 17 17 17 17 17 17 17 17 17 17 17 16 16 16
18 19 20 20 19 19 19 18 18 18 17 17 16 16 16 17 17 17 17 17 18 18 18 18 18 18 18 18 18 18 18 17 17 17 17 17 17 17 17 17 16 16 16 16
17 19 19 19 18 18 18 17 18 18 17 16 16 15 15 16 16 17 17 17 18 18 17 17 17 18 18 18 18 18 18 18 17 17 17 17 17 17 17 17 16 16 16 16
15 18 18 18 18 18 17 17 17 17 16 15 15 15 15 16 16 16 17 17 17 17 17 17 17 17 18 17 18 18 17 17 17 17 17 17 17 17 17 17 16 16 16 16
14 16 17 18 17 17 17 16 16 16 15 15 15 15 15 15 16 16 16 16 16 17 17 17 17 17 17 17 17 17 17 17 17 17 17 17 17 17 17 17 17 16 16 16
14 16 17 17 17 17 17 16 15 15 14 14 15 15 14 14 15 15 16 16 16 16 17 17 17 17 17 17 17 17 17 17 17 17 17 17 17 17 17 17 17 16 16 16
15 16 16 16 15 17 17 16 15 14 14 14 14 14 14 14 14 15 15 15 16 16 16 16 16 16 16 16 16 17 17 17 17 17 17 17 17 17 17 16 16 16 16 16
13 15 15 14 15 16 15 14 14 14 14 14 13 13 13 14 14 14 15 15 15 16 16 16 16 16 16 16 16 16 16 16 16 16 16 16 16 16 16 16 16 16 15 15
13 13 13 12 13 14 14 14 14 14 14 14 13 13 13 13 14 14 14 14 14 15 15 15 15 15 15 15 15 16 16 16 16 16 16 16 16 16 16 15 15 15 15 15
12 12 12 12 13 13 14 14 14 14 14 14 13 13 13 13 13 13 13 13 13 14 14 14 14 14 15 15 15 15 15 15 15 15 15 15 15 15 15 15 15 15 15 15
12 12 12 12 12 13 13 13 13 13 13 13 13 12 12 12 12 12 12 13 13 13 13 13 14 14 14 14 14 14 14 14 14 15 15 14 14 14 14 14 15 14 14 14
12 12 11 11 12 13 13 13 13 13 12 12 13 12 12 12 12 12 12 12 12 12 12 12 13 13 13 13 14 14 14 14 14 14 14 14 14 13 13 13 14 14 14 14
12 12 12 11 12 12 12 12 12 12 12 12 12 12 12 11 11 11 11 11 11 11 11 12 12 12 12 13 13 13 13 13 13 13 13 13 13 13 13 13 13 13 13 13
12 12 11 11 11 12 12 12 12 11 11 11 11 11 11 11 11 11 11 11 11 11 11 11 11 11 11 12 12 12 13 13 13 13 13 13 13 13 13 12 12 12 12 12
11 12 11 11 11 11 11 11 11 10 10 10 10 10 11 11 10 10 10 10 11 11 11 11 11 11 11 11 11 12 12 12 12 12 12 12 12 12 12 11 11 11 11 11
11 11 11 10 10 10 10 11 10 10 10 10 10 10 10 10 10 10 10 10 10 10 10 10 10 10 10 11 11 11 11 11 11 11 11 11 11 11 11 10 10 10 10 10
10 10 10 10 10 10 10 10 10 10 10 10 9 10 10 10 10 10 10 10 10 10 10 10 10 10 10 10 10 10 10 10 10 10 10 10 10 9 9 9 9 9 9 9
11 11 11 11 10 10 10 10 10 9 9 9 9 9 10 10 9 9 9 9 9 9 9 9 10 10 10 10 10 10 10 9 9 9 9 9 9 9 9 9 8 8 8 8
11 11 10 10 10 10 10 10 10 9 9 9 9 9 9 9 9 9 9 9 9 9 9 9 9 9 9 9 9 9 9 9 9 8 8 8 8 8 8 8 8 7 7 7
10 10 10 10 10 10 10 10 9 9 9 9 9 9 9 9 9 9 9 9 9 8 8 9 9 9 9 9 9 9 9 8 8 8 8 7 7 7 7 7 7 7 7 7
10 10 10 10 10 10 10 10 10 9 9 9 9 9 9 8 8 9 9 8 8 8 8 8 8 8 8 8 8 8 8 8 8 7 7 7 7 7 7 7 6 6 6 6
10 10 10 10 10 10 10 10 10 9 9 9 9 9 9 8 8 8 8 8 8 8 8 8 8 8 8 8 8 8 8 7 7 7 7 7 7 6 6 6 6 6 6 5
10 10 10 10 10 9 9 9 9 9 9 9 9 9 8 8 8 8 8 8 8 8 8 8 8 8 8 8 7 7 7 7 7 7 6 6 6 6 6 6 6 5 5 5
9 9 9 9 9 9 9 9 9 9 9 9 9 8 8 8 8 8 7 7 7 7 7 7 7 7 7 7 7 7 6 6 6 6 6 6 6 5 5 5 5 5 5 4
9 9 9 9 9 9 9 9 9 9 8 8 8 8 8 8 8 7 7 7 7 7 7 6 6 6 6 6 6 6 6 6 6 6 6 5 5 5 5 4 4 4 4 4
9 9 9 9 9 9 9 9 8 8 8 8 8 7 7 7 7 7 7 7 6 6 6 6 6 6 6 6 6 6 5 5 5 5 5 5 5 4 4 4 4 4 3 3
9 9 9 9 9 9 9 8 8 8 8 8 7 7 7 7 7 7 6 6 6 6 6 6 6 5 5 5 5 5 5 5 5 5 4 4 4 4 4 4 3 3 3 3